Location: Ingoldesthorpe
(52.8667°N, 0.5167°E)
Time: 17:51:59
(UTC+00:00)

Daily predictions for brighter satellites

Satellite Brightness Start Highest point End
(mag) Time Altitude Azimuth Time Altitude Azimuth Time Altitude Azimuth
Cosmos 158 Rocket 4.4 20:34:10 10° S 20:39:12 45° ESE 20:44:19 10° NE
USA 245 4.0 20:36:09 10° SSE 20:40:23 65° ENE 20:45:39 10° N
Cosmos 2058 Rocket 3.1 20:40:03 10° S 20:44:29 66° E 20:48:55 10° NNE
Geosat 4.2 20:41:16 10° NNE 20:46:19 82° NW 20:51:20 10° SW
Helios 1A 2.9 20:43:16 10° NNE 20:47:21 82° ESE 20:51:23 10° SSW
Cosmos 1980 Rocket 2.8 20:46:18 10° NNW 20:51:45 49° NE 20:57:10 10° SE
PSLV R/B 3.8 20:49:51 10° SE 20:52:57 47° ENE 20:56:07 10° N
Helios 1B rocket 4.3 20:51:53 10° SSW 20:54:56 24° W 20:58:00 10° NW
ATLAS CENTAUR R/B 1.3 20:51:43 10° SSW 20:55:16 47° SE 20:58:59 10° NE
Terra 2.1 20:51:38 10° S 20:56:17 66° WSW 21:00:59 10° NNW
NOSS 7 (H) 4.0 20:53:42 10° NW 20:56:36 83° SW 20:59:36 11° SE
USA 234 3.5 20:51:06 10° ENE 20:57:24 48° SE 21:03:41 10° SSW
Cosmos 1315 Rocket 4.2 20:55:16 10° SE 20:58:12 21° E 21:01:09 10° NE
SAR-Lupe-2 3.8 20:58:29 10° S 21:02:02 69° WSW 21:05:37 10° NNW
SL-16 R/B 4.0 20:57:48 10° NNW 21:02:20 24° NE 21:06:52 10° E
Meteor 2-2 Rocket 4.4 21:00:08 10° S 21:05:59 66° E 21:11:57 10° NNE
BlueWalker 3 2.3 21:03:35 10° W 21:07:06 45° SSW 21:10:12 12° SE
Cosmos 1125 Rocket 3.7 21:03:21 10° NNW 21:08:39 72° WSW 21:13:55 10° SSE
Meteor 2-10 4.5 21:03:07 10° N 21:08:46 58° ENE 21:13:58 11° SSE
Cosmos 1346 Rocket 3.0 21:06:46 10° NNW 21:10:26 61° W 21:14:04 10° S
Cosmos 2322 Rocket 4.3 21:06:54 10° NNW 21:11:03 20° NNE 21:15:10 10° ENE
Cosmos 1400 Rocket 3.5 21:08:19 10° SSW 21:11:55 51° WNW 21:15:31 10° N
Cosmos 2366 rocket 4.1 21:08:31 10° N 21:14:55 74° ENE 21:21:08 10° SSE
SL-24 DEB 4.4 21:14:17 12° SSE 21:18:24 55° E 21:22:51 10° N
IRS-1C Rocket 4.3 21:15:52 10° S 21:21:07 70° WSW 21:26:25 10° NNW
Cosmos 44 3.6 21:16:43 10° NW 21:21:08 52° SW 21:25:13 13° SSE
Ariane Rocket 3.0 21:16:59 10° SSE 21:22:00 88° WSW 21:27:07 10° NNW
CZ-4C R/B 4.3 21:17:10 10° WNW 21:23:20 31° WSW 21:30:30 10° S
Cosmos 2298 Rocket 4.1 21:18:00 10° NNW 21:23:21 73° ENE 21:27:57 14° SSE
SL-8 Rocket 4.0 21:17:19 10° N 21:23:32 90° ENE 21:29:41 10° S
Cosmos 1697 Rocket 3.1 21:18:26 10° NW 21:24:01 60° WSW 21:29:17 12° SSE
Lacrosse 5 rocket 2.2 21:21:08 10° WNW 21:24:13 28° SW 21:26:34 14° S
Cosmos 1238 Rocket 3.3 21:22:12 14° SSE 21:24:51 34° E 21:27:52 10° NNE
Cosmos 1570 Rocket 4.0 21:22:09 10° S 21:27:19 63° ESE 21:32:34 10° NNE
ARIANE 5 R/B 4.5 21:24:17 10° ESE 21:27:26 20° ENE 21:30:36 10° NNE
CENTAUR R/B 4.1 21:22:57 10° NW 21:29:59 44° NNE 21:38:21 10° E
Cosmos 2360 Rocket 4.2 21:26:35 10° NNW 21:30:53 22° NNE 21:35:10 10° E
ATLAS 3B R/B 4.4 21:30:06 12° SE 21:33:29 17° ESE 21:37:57 10° ENE
Cosmos-2242 3.5 21:29:37 10° SSW 21:33:50 61° WNW 21:38:06 10° N
Cosmos 1536 3.2 21:31:12 10° N 21:34:54 46° ENE 21:37:32 17° SE
Cosmos 2344 4.2 21:28:07 10° WSW 21:35:21 59° NNW 21:42:54 10° NE
Cosmos 2369 3.9 21:31:06 10° NNW 21:36:46 64° NE 21:41:29 15° SE
Cosmos 1867 4.1 21:31:43 10° NW 21:37:00 51° WSW 21:41:23 15° SSE
Cosmos 405 Rocket 4.2 21:36:51 10° NNE 21:39:35 21° ENE 21:41:39 13° ESE
Cosmos 2150 Rocket 4.1 21:34:14 10° NNW 21:39:38 86° WSW 21:44:04 16° SSE
SeaSat 1 2.4 21:36:40 16° SE 21:40:41 88° ENE 21:45:39 10° NNW
Cosmos 2221 2.7 21:37:30 15° SSE 21:40:44 50° E 21:44:48 10° NNE
Okean O Rocket 4.1 21:38:23 10° SW 21:41:17 17° W 21:44:12 10° NW
Cosmos 2341 Rocket 4.3 21:38:55 10° NNW 21:45:08 66° W 21:51:16 10° S
Okean 1 3.3 21:42:38 17° SSE 21:45:15 53° E 21:48:51 10° NNE
Cosmos 2082 Rocket 2.9 21:42:05 15° SSE 21:46:01 33° ESE 21:50:59 10° NE
SPOT 3 Rocket 4.1 21:43:34 10° S 21:48:30 52° W 21:53:32 10° NNW
Cosmos 1674 2.9 21:48:35 20° E 21:48:40 20° E 21:50:25 10° NE
ISS -3.0 21:51:39 10° W 21:54:46 36° SSW 21:56:12 24° SSE
Cosmos 773 Rocket 4.0 21:51:35 10° S 21:56:38 63° ESE 22:01:43 10° NNE
COBE Rocket 4.5 21:52:38 10° NNE 21:57:31 44° E 22:00:56 19° SSE
Cosmos 1766 Rocket 3.7 21:54:58 10° N 21:59:22 62° ENE 22:02:12 21° SSE
Cosmos 2084 Rocket 3.4 21:55:47 10° SW 22:00:00 64° SE 22:04:13 10° NE
Cosmos 220 Rocket 4.0 21:57:20 17° S 22:00:18 52° ESE 22:04:17 10° NE
COSMOS 2406 4.2 21:59:10 18° SSE 22:02:12 29° ESE 22:07:02 10° NE
ARIANE 6 FM1 Upper Stage 3.3 21:58:22 10° WSW 22:02:20 57° NW 22:06:22 10° NE
Cosmos 1356 Rocket 4.0 22:04:33 10° SSW 22:08:37 57° WNW 22:12:40 10° N
USA 59 Rocket 1.1 22:10:24 16° ESE 22:10:24 16° ESE 22:11:38 10° E
Cosmos 2333 Rocket 3.4 22:05:07 10° NNW 22:10:24 36° NE 22:15:38 10° ESE
NOSS 3-1 (C) 3.1 22:08:46 10° SW 22:13:43 86° NW 22:19:52 10° NE
Cosmos 1833 Rocket 3.5 22:08:27 10° SW 22:13:59 55° NW 22:19:33 10° NNE
MetOp-A 4.4 22:10:43 19° SE 22:14:14 56° ENE 22:19:18 10° N
Meteor 2-9 Rocket 4.2 22:14:28 10° NNW 22:20:07 90° W 22:24:06 21° SSE
Cosmos 1821 Rocket 4.2 22:14:15 10° NNW 22:20:18 65° W 22:25:07 16° S
PKM 3.4 22:18:57 10° SW 22:21:41 61° SSE 22:25:52 10° ENE
Cosmos 1805 3.5 22:19:08 10° NNW 22:22:31 51° W 22:24:24 23° SSW
ALOS 2 3.8 22:19:44 16° ESE 22:22:33 32° ENE 22:26:28 10° N
Cosmos 2219 Rocket 3.9 22:21:19 10° NNW 22:26:04 27° NE 22:30:48 10° E
Meteor 1-19 Rocket 4.4 22:25:46 20° S 22:30:05 68° E 22:36:04 10° NNE
ATLAS CENTAUR R/B 3.0 22:28:06 10° W 22:31:33 33° NNW 22:35:05 10° NNE
Cosmos 1315 Rocket 3.8 22:30:06 10° SW 22:33:45 42° WNW 22:37:29 10° N
Meteor 1-27 Rocket 3.9 22:30:55 23° SSE 22:34:18 54° E 22:39:42 10° NNE
Cosmos 1980 Rocket 3.1 22:30:31 10° NW 22:35:38 38° WSW 22:39:12 18° SSW
NOSS 2-1 (D) 3.7 22:36:14 29° ESE 22:36:14 29° ESE 22:38:45 10° ENE
Sich 1 3.7 22:32:09 10° N 22:36:13 42° ENE 22:38:23 23° SE
Helios 1B 4.5 22:33:20 10° NNE 22:37:39 80° ESE 22:40:12 24° S
Genesis I 2.4 22:36:52 10° NW 22:39:38 70° NE 22:40:24 41° ESE
USA 234 3.3 22:34:12 10° ENE 22:40:45 83° NNW 22:47:19 10° WSW
DELTA 2 DEB (DPAF) 4.4 22:37:44 10° N 22:41:37 56° WNW 22:44:39 16° SW
NOSS 3-1 (A) 3.0 22:38:25 10° SW 22:43:19 77° SE 22:49:23 10° NE
Meteor 2-15 4.5 22:37:13 10° N 22:43:21 77° ENE 22:47:14 24° SSE
BlueWalker 3 4.0 22:42:35 10° WSW 22:44:08 12° SW 22:44:09 12° SW
SL-16 R/B 2.3 22:41:38 10° NNW 22:47:21 79° ENE 22:51:04 22° SE
Cosmos 1975 2.5 22:45:02 10° N 22:48:43 85° ENE 22:50:13 34° SSE
Meteor 1-11 Rocket 4.0 22:44:27 10° NNW 22:49:54 60° W 22:53:25 22° S
Cosmos 783 Rocket 4.4 22:47:02 17° SSW 22:51:06 90° SE 22:56:22 10° NNE
Cosmos 1500 Rocket 4.0 22:47:05 10° N 22:51:22 50° ENE 22:53:33 26° SE
Cosmos 1707 3.5 22:51:13 27° ESE 22:51:56 29° E 22:54:54 10° NNE
CZ-4C R/B 3.2 22:48:29 10° N 22:52:10 72° WNW 22:54:01 26° SSW
NOSS 2-1 (C) 3.1 22:55:39 41° SSE 22:55:56 42° SE 22:58:49 10° ENE
Cosmos 2322 Rocket 2.6 22:50:38 10° NNW 22:56:17 60° NE 23:00:24 18° SE
Cosmos 2237 4.3 22:51:10 10° NW 22:56:51 68° WSW 23:00:06 26° SSE
Spot 4 3.8 22:56:44 28° SSE 22:59:17 84° ENE 23:04:06 10° NNW
Meteor 2-15 Rocket 4.5 22:54:06 10° N 23:00:15 76° ENE 23:04:01 25° SSE
Cosmos 1408 Rocket 3.6 22:55:57 10° N 23:00:19 72° ENE 23:02:20 31° SSE
ARIANE 5 R/B 2.7 23:01:14 29° S 23:03:20 66° WSW 23:07:42 10° NNW
Cosmos 1766 3.0 23:00:43 10° NNW 23:04:09 67° W 23:05:17 38° SSW
Cosmos 1842 Rocket 3.5 23:02:48 27° SSW 23:05:05 81° WNW 23:09:25 10° N
Cosmos 1908 2.7 23:02:16 10° N 23:05:33 82° E 23:06:26 45° SSE
Cosmos 1470 2.7 23:02:33 10° N 23:06:06 60° ENE 23:07:19 36° SE
Cosmos 1805 Rocket 3.7 23:03:03 10° N 23:07:30 68° ENE 23:09:35 30° SSE
Nadezhda 3 Rocket 4.4 23:06:38 16° SSW 23:11:38 60° WNW 23:17:51 10° N
Cosmos 2278 3.7 23:07:51 10° NW 23:13:31 73° WSW 23:16:39 27° SSE
Cosmos 405 Rocket 3.6 23:10:43 10° NNW 23:13:50 32° W 23:14:58 25° SW
GP-B 4.0 23:10:30 10° NNE 23:14:36 37° E 23:16:31 24° SE
Exosat Rocket 3.4 23:10:24 10° NNW 23:15:34 89° WSW 23:18:24 27° SSE
Cosmos 2360 Rocket 2.4 23:10:17 10° NNW 23:15:55 69° NE 23:19:47 21° SE
Cosmos 1934 Rocket 4.2 23:09:56 10° NNW 23:16:05 63° W 23:20:02 23° SSW
SeaSat 1 4.3 23:16:18 14° SW 23:18:40 18° WSW 23:22:04 10° WNW
Cosmos 1674 4.3 23:18:16 10° W 23:19:06 12° WNW 23:20:03 10° NW
CZ-2C R/B 3.7 23:14:51 10° NNE 23:19:15 71° WNW 23:21:45 25° SSW
Meteor 2-8 Rocket 4.5 23:14:55 10° N 23:21:08 84° E 23:24:49 26° SSE
Cosmos 381 Rocket 4.5 23:17:17 21° SSW 23:21:41 83° ESE 23:28:07 10° NNE
CENTAUR R/B 3.3 23:13:45 10° NW 23:21:43 82° NE 23:31:00 10° SE
ATLAS 3B R/B 3.0 23:17:16 19° SSW 23:22:44 61° SE 23:30:27 10° NE
KORONAS-FOTON 3.4 23:22:30 42° S 23:23:35 89° E 23:27:05 10° N
USA 229 DEB 4.0 23:20:46 26° S 23:23:41 43° ESE 23:29:58 10° NE
ASTEX 1 4.2 23:19:03 10° NNE 23:23:43 40° E 23:26:06 25° SE
Spot 1 4.3 23:19:33 10° NNE 23:23:46 56° ESE 23:25:33 32° SSE
USA 229 4.0 23:20:54 26° S 23:23:47 42° ESE 23:30:03 10° NE
Cosmos 1743 Rocket 3.6 23:21:18 10° N 23:25:46 77° ENE 23:27:46 32° SSE
Cosmos 2082 Rocket 2.8 23:24:20 10° SW 23:29:51 55° NW 23:35:25 10° NNE
Cosmos 1605 Rocket 4.0 23:25:14 10° NNW 23:31:36 78° W 23:35:18 26° S
Landsat 5 3.7 23:29:47 10° N 23:33:55 66° WNW 23:36:07 27° SSW
Cosmos 1842 2.9 23:36:29 43° SSW 23:37:30 81° W 23:41:00 10° N
Cosmos 1420 Rocket 4.0 23:35:07 10° NNW 23:40:28 88° ENE 23:43:26 27° SSE
USA-17 4.1 23:40:06 10° NW 23:43:12 89° NE 23:44:06 44° SE
COSMOS 2406 3.6 23:41:09 14° SW 23:46:07 63° NW 23:51:49 10° NNE
Cosmos 1455 3.3 23:43:54 10° NNE 23:46:14 22° ENE 23:47:02 20° E
Cosmos 2237 Rocket 4.5 23:41:55 10° NNW 23:46:20 23° NNE 23:50:45 10° E
Cosmos 1300 2.1 23:46:37 10° N 23:49:48 80° E 23:50:26 53° SSE
